GW1682 Weather Reports


time (UTC)temp
C
wind
direction
speed
KPH
gust
KPH
rain 1hr
cm
rain 24hr
cm
rain mn
cm
humidity
%
barometer
mb
20260509171636 21 268 1.6 4.8 0.00 0.00 0.00 56 1013.1
20260509170148 22 250 1.6 6.4 0.00 0.00 0.00 54 1012.9
20260509164637 22 305 1.6 6.4 0.00 0.00 0.00 52 1012.8
20260509161625 22 168 1.6 14.5 0.00 0.00 0.00 48 1012.6
20260509160125 23 128 1.6 14.5 0.00 0.00 0.00 47 1012.6
20260509154622 23 137 1.6 11.3 0.00 0.00 0.00 46 1012.5
20260509153126 23 241 3.2 16.1 0.00 0.00 0.00 44 1012.5
20260509151619 23 230 4.8 19.3 0.00 0.00 0.00 43 1012.5
20260509143111 24 199 4.8 14.5 0.00 0.00 0.00 38 1012.6
20260509141611 25 223 8.0 19.3 0.00 0.00 0.00 37 1012.6
20260509140111 25 293 6.4 19.3 0.00 0.00 0.00 35 1012.7
20260509133107 25 230 6.4 20.9 0.00 0.00 0.00 34 1012.8
20260509131609 25 206 6.4 24.1 0.00 0.00 0.00 33 1012.9
20260509124604 24 175 9.7 22.5 0.00 0.00 0.00 35 1013.2
20260509123107 25 227 8.0 20.9 0.00 0.00 0.00 37 1013.4
20260509121613 25 164 6.4 27.4 0.00 0.00 0.00 37 1013.5
20260509114603 24 142 6.4 22.5 0.00 0.00 0.00 39 1013.5
20260509113102 24 149 6.4 25.7 0.00 0.00 0.00 40 1013.7
20260509104602 24 134 6.4 22.5 0.00 0.00 0.00 43 1013.8
20260509103103 23 217 6.4 20.9 0.00 0.00 0.00 43 1013.9
20260509100109 23 152 4.8 17.7 0.00 0.00 0.00 44 1014.2
20260509094603 24 231 3.2 17.7 0.00 0.00 0.00 39 1014.4
20260509093102 24 203 4.8 16.1 0.00 0.00 0.00 36 1014.6
20260509091602 24 212 6.4 14.5 0.00 0.00 0.00 35 1014.4
20260509084603 23 252 4.8 14.5 0.00 0.00 0.00 42 1014.6
20260509083103 23 247 3.2 9.7 0.00 0.00 0.00 40 1014.7
20260509081604 23 266 4.8 11.3 0.00 0.00 0.00 47 1014.6
20260509080116 23 255 1.6 9.7 0.00 0.00 0.00 47 1014.5
20260509074601 23 241 1.6 8.0 0.00 0.00 0.00 48 1014.6
20260509073102 22 220 1.6 8.0 0.00 0.00 0.00 49 1014.5
20260509071603 22 255 1.6 4.8 0.00 0.00 0.00 52 1014.6
20260509064608 21 252 1.6 6.4 0.00 0.00 0.00 55 1014.6
20260509063103 21 274 1.6 3.2 0.00 0.00 0.00 56 1014.5
20260509061602 20 262 1.6 4.8 0.00 0.00 0.00 59 1014.5
20260509060118 20 268 0.0 3.2 0.00 0.00 0.00 64 1014.7
20260509053056 18 172 0.0 3.2 0.00 0.00 0.00 64 1014.6
20260509051556 18 164 0.0 3.2 0.00 0.00 0.00 65 1014.9
20260509050054 17 140 0.0 3.2 0.00 0.00 0.00 66 1014.9
20260509044549 17 0 0.0 1.6 0.00 0.00 0.00 65 1015.0
20260509043052 17 106 0.0 3.2 0.00 0.00 0.00 65 1014.9
20260509041549 17 106 0.0 3.2 0.00 0.00 0.00 63 1014.9
20260509040047 17 162 0.0 3.2 0.00 0.00 0.00 59 1014.8
20260509034548 18 162 0.0 3.2 0.00 0.00 0.00 56 1014.5
20260509031545 18 155 0.0 3.2 0.00 0.00 0.00 55 1014.6
20260509030045 18 157 3.2 4.8 0.00 0.00 0.00 54 1014.5
20260509024545 18 157 1.6 1.6 0.00 0.00 0.00 59 1014.5
20260509021540 17 149 0.0 4.8 0.00 0.00 0.00 63 1014.4
20260509020041 18 326 1.6 8.0 0.00 0.00 0.00 58 1014.2
20260509014539 18 157 0.0 4.8 0.00 0.00 0.00 56 1014.6
20260509013036 18 161 1.6 3.2 0.00 0.00 0.00 60 1014.7
20260509010034 18 161 0.0 3.2 0.00 0.00 0.00 63 1015.3
20260509004533 18 151 1.6 4.8 0.00 0.00 0.00 63 1015.6
20260509003038 17 178 0.0 3.2 0.00 0.00 0.00 67 1015.7
20260508234537 18 203 0.0 3.2 0.00 0.00 0.00 68 1016.1
20260508233035 17 171 0.0 3.2 0.00 0.00 0.00 73 1016.2
20260508230037 18 154 0.0 3.2 0.00 0.00 0.00 67 1016.3
20260508224550 18 234 0.0 1.6 0.00 0.00 0.00 66 1016.6
20260508221539 19 155 3.2 4.8 0.00 0.00 0.00 65 1016.5
20260508220059 19 293 0.0 4.8 0.00 0.00 0.00 62 1016.9
20260508214533 20 309 3.2 4.8 0.00 0.00 0.00 59 1016.8
20260508213035 20 214 1.6 3.2 0.00 0.00 0.00 56 1016.7
20260508210216 20 247 0.0 3.2 0.00 0.00 0.00 57 1016.7
20260508203422 20 250 3.2 6.4 0.00 0.00 0.00 55 1016.8
20260508200421 20 228 1.6 3.2 0.00 0.00 0.00 49 1016.1
20260508194923 20 259 1.6 9.7 0.00 0.00 0.00 47 1016.3
20260508193420 20 300 1.6 16.1 0.00 0.00 0.00 46 1015.9
20260508190430 21 230 3.2 11.3 0.00 0.00 0.00 42 1015.8
20260508184927 21 234 6.4 17.7 0.00 0.00 0.00 42 1015.4
20260508183422 21 168 3.2 20.9 0.00 0.00 0.00 43 1015.2
20260508174926 21 238 6.4 19.3 0.00 0.00 0.00 43 1014.7